QPF
0.01 0.05 0.10 0.15 0.20 0.20 0.18 0.11 0.07 0.04 0.02 0.02 0.01 0.01 0.02 0.02 0.03 0.10 0.12 0.09 0.05 0.05 0.04 0.05 0.04 0.02 0.02 0.03 0.03 0.02 0.03 0.08 0.08 0.05 0.04 0.04 0.04 0.03 0.03 0.03 0.03 0.02 0.02 0.02 0.03 0.05 0.06 0.07 0.06
0.03 0.09 0.11 0.19 0.19 0.12 0.09 0.09 0.06 0.05 0.02 0.01 0.00 0.01 0.01 0.02 0.04 0.07 0.09 0.09 0.04 0.03 0.03 0.06 0.05 0.03 0.03 0.03 0.02 0.02 0.03 0.02 0.03 0.03 0.03 0.03 0.03 0.02 0.03 0.03 0.03 0.03 0.03 0.03 0.04 0.06 0.04 0.04 0.05
0.08 0.12 0.15 0.24 0.20 0.10 0.07 0.07 0.05 0.03 0.01 0.01 0.01 0.01 0.02 0.04 0.05 0.08 0.08 0.07 0.04 0.04 0.05 0.07 0.06 0.04 0.03 0.03 0.03 0.03 0.03 0.02 0.02 0.02 0.02 0.02 0.01 0.02 0.03 0.03 0.03 0.03 0.03 0.05 0.07 0.05 0.03 0.02 0.03
0.12 0.17 0.25 0.28 0.16 0.08 0.05 0.04 0.02 0.02 0.01 0.01 0.01 0.02 0.05 0.08 0.06 0.07 0.09 0.05 0.03 0.03 0.06 0.06 0.06 0.04 0.04 0.05 0.04 0.05 0.03 0.02 0.02 0.02 0.01 0.02 0.02 0.02 0.03 0.03 0.03 0.03 0.05 0.05 0.05 0.03 0.02 0.02 0.03
0.15 0.25 0.27 0.20 0.14 0.07 0.04 0.03 0.02 0.01 0.01 0.01 0.01 0.01 0.05 0.09 0.08 0.09 0.08 0.03 0.02 0.02 0.05 0.05 0.05 0.04 0.04 0.06 0.07 0.06 0.03 0.03 0.02 0.02 0.02 0.02 0.02 0.02 0.02 0.02 0.04 0.05 0.05 0.05 0.03 0.02 0.02 0.03 0.03
0.12 0.26 0.22 0.12 0.10 0.06 0.04 0.04 0.03 0.01 0.00 0.01 0.01 0.01 0.05 0.11 0.09 0.08 0.06 0.02 0.02 0.01 0.03 0.03 0.04 0.04 0.05 0.06 0.06 0.06 0.04 0.03 0.02 0.03 0.03 0.03 0.02 0.02 0.02 0.03 0.04 0.04 0.06 0.04 0.03 0.02 0.03 0.05 0.05
0.11 0.16 0.11 0.08 0.05 0.04 0.03 0.02 0.01 0.01 0.01 0.01 0.01 0.02 0.05 0.10 0.12 0.09 0.06 0.02 0.02 0.01 0.01 0.01 0.02 0.02 0.04 0.03 0.03 0.04 0.05 0.04 0.03 0.04 0.05 0.04 0.02 0.02 0.02 0.03 0.04 0.05 0.05 0.04 0.03 0.03 0.05 0.07 0.06
0.08 0.11 0.07 0.03 0.02 0.02 0.03 0.02 0.01 0.01 0.01 0.02 0.01 0.02 0.03 0.05 0.10 0.10 0.06 0.03 0.02 0.01 0.01 0.01 0.01 0.01 0.02 0.03 0.04 0.05 0.05 0.05 0.04 0.03 0.03 0.03 0.03 0.02 0.02 0.03 0.03 0.03 0.03 0.03 0.03 0.04 0.08 0.10 0.06
0.05 0.10 0.06 0.02 0.01 0.01 0.01 0.01 0.01 0.01 0.01 0.01 0.01 0.02 0.02 0.04 0.07 0.06 0.05 0.05 0.03 0.02 0.01 0.01 0.01 0.01 0.01 0.03 0.05 0.08 0.08 0.06 0.04 0.04 0.03 0.02 0.01 0.01 0.01 0.01 0.01 0.02 0.02 0.02 0.02 0.05 0.08 0.10 0.05
0.08 0.08 0.02 0.01 0.01 0.00 0.01 0.01 0.01 0.01 0.01 0.00 0.02 0.03 0.02 0.02 0.04 0.04 0.04 0.04 0.03 0.04 0.03 0.01 0.01 0.01 0.01 0.02 0.03 0.06 0.07 0.05 0.04 0.04 0.02 0.01 0.01 0.01 0.01 0.01 0.01 0.01 0.01 0.02 0.03 0.04 0.08 0.10 0.08
0.07 0.03 0.01 0.01 0.01 0.00 0.00 0.01 0.00 0.00 0.01 0.01 0.01 0.03 0.02 0.03 0.03 0.04 0.04 0.04 0.06 0.08 0.06 0.03 0.02 0.02 0.01 0.01 0.01 0.03 0.04 0.03 0.03 0.03 0.02 0.02 0.01 0.01 0.01 0.02 0.02 0.01 0.02 0.02 0.02 0.03 0.05 0.09 0.10
0.03 0.02 0.01 0.02 0.01 0.01 0.01 0.01 0.01 0.00 0.01 0.01 0.02 0.03 0.02 0.03 0.06 0.08 0.04 0.04 0.06 0.08 0.06 0.05 0.04 0.02 0.01 0.01 0.01 0.02 0.03 0.02 0.03 0.03 0.03 0.02 0.02 0.02 0.01 0.01 0.01 0.02 0.02 0.03 0.03 0.04 0.04 0.07 0.10
0.01 0.02 0.02 0.02 0.01 0.01 0.01 0.01 0.01 0.01 0.01 0.02 0.02 0.01 0.03 0.04 0.04 0.03 0.02 0.02 0.03 0.05 0.05 0.04 0.03 0.02 0.02 0.02 0.01 0.02 0.02 0.03 0.04 0.05 0.04 0.02 0.01 0.02 0.02 0.01 0.01 0.02 0.02 0.03 0.04 0.04 0.04 0.05 0.07
0.02 0.01 0.02 0.02 0.02 0.03 0.03 0.02 0.02 0.02 0.01 0.02 0.02 0.01 0.01 0.02 0.01 0.01 0.01 0.02 0.02 0.02 0.02 0.01 0.01 0.01 0.02 0.02 0.02 0.02 0.03 0.03 0.04 0.04 0.04 0.03 0.02 0.02 0.02 0.03 0.02 0.02 0.02 0.03 0.05 0.04 0.04 0.04 0.06
0.03 0.02 0.02 0.03 0.03 0.04 0.03 0.03 0.03 0.04 0.02 0.01 0.01 0.01 0.00 0.01 0.01 0.01 0.01 0.01 0.01 0.01 0.01 0.01 0.01 0.01 0.02 0.02 0.03 0.04 0.04 0.04 0.04 0.05 0.04 0.04 0.03 0.03 0.02 0.02 0.03 0.04 0.03 0.04 0.07 0.03 0.05 0.05 0.06
0.02 0.04 0.04 0.03 0.04 0.04 0.02 0.02 0.02 0.02 0.02 0.01 0.01 0.01 0.00 0.00 0.00 0.00 0.01 0.01 0.01 0.01 0.01 0.01 0.01 0.01 0.01 0.02 0.03 0.04 0.06 0.05 0.06 0.05 0.04 0.03 0.04 0.04 0.03 0.02 0.02 0.03 0.03 0.03 0.03 0.03 0.04 0.08 0.06
0.03 0.07 0.04 0.03 0.05 0.03 0.02 0.02 0.02 0.03 0.03 0.01 0.01 0.01 0.01 0.01 0.01 0.01 0.01 0.01 0.02 0.02 0.02 0.01 0.01 0.01 0.02 0.02 0.06 0.06 0.06 0.06 0.07 0.06 0.04 0.02 0.02 0.02 0.03 0.03 0.01 0.03 0.02 0.03 0.02 0.02 0.02 0.03 0.04
0.04 0.04 0.03 0.03 0.03 0.02 0.03 0.03 0.02 0.02 0.04 0.02 0.01 0.01 0.01 0.01 0.00 0.00 0.01 0.00 0.01 0.01 0.01 0.02 0.01 0.02 0.03 0.05 0.09 0.09 0.07 0.07 0.07 0.04 0.02 0.02 0.01 0.02 0.03 0.03 0.03 0.03 0.02 0.03 0.03 0.03 0.03 0.02 0.02
0.03 0.03 0.03 0.01 0.02 0.03 0.05 0.04 0.03 0.02 0.02 0.02 0.01 0.01 0.00 0.01 0.01 0.00 0.00 0.00 0.01 0.00 0.01 0.01 0.01 0.02 0.04 0.07 0.09 0.09 0.09 0.09 0.07 0.04 0.04 0.03 0.02 0.02 0.03 0.03 0.02 0.02 0.02 0.03 0.03 0.03 0.03 0.02 0.02
0.02 0.06 0.05 0.02 0.01 0.02 0.04 0.04 0.03 0.02 0.01 0.01 0.01 0.01 0.01 0.01 0.01 0.01 0.01 0.00 0.00 0.01 0.02 0.02 0.02 0.03 0.05 0.07 0.08 0.11 0.10 0.06 0.05 0.05 0.07 0.05 0.04 0.04 0.03 0.03 0.02 0.02 0.03 0.03 0.02 0.03 0.03 0.03 0.02
0.01 0.04 0.03 0.03 0.02 0.02 0.04 0.07 0.04 0.03 0.02 0.02 0.01 0.02 0.02 0.02 0.01 0.01 0.01 0.01 0.01 0.01 0.01 0.01 0.02 0.03 0.05 0.05 0.07 0.09 0.06 0.05 0.05 0.05 0.05 0.04 0.06 0.07 0.06 0.05 0.03 0.02 0.03 0.04 0.03 0.03 0.03 0.03 0.03
0.02 0.02 0.01 0.02 0.03 0.02 0.03 0.09 0.07 0.05 0.04 0.03 0.02 0.03 0.04 0.03 0.02 0.01 0.01 0.01 0.01 0.01 0.01 0.01 0.02 0.03 0.04 0.05 0.06 0.05 0.03 0.03 0.03 0.02 0.02 0.03 0.06 0.06 0.06 0.05 0.04 0.02 0.01 0.02 0.03 0.04 0.04 0.03 0.02
0.02 0.02 0.02 0.03 0.03 0.03 0.04 0.06 0.06 0.06 0.05 0.03 0.03 0.03 0.05 0.04 0.02 0.01 0.01 0.02 0.02 0.01 0.01 0.01 0.01 0.03 0.04 0.05 0.04 0.04 0.03 0.03 0.02 0.01 0.01 0.02 0.02 0.01 0.02 0.02 0.03 0.03 0.02 0.01 0.02 0.04 0.05 0.04 0.03
0.01 0.02 0.03 0.03 0.03 0.04 0.03 0.05 0.06 0.08 0.07 0.04 0.02 0.03 0.04 0.04 0.02 0.02 0.02 0.02 0.02 0.02 0.01 0.01 0.02 0.06 0.09 0.07 0.04 0.05 0.04 0.03 0.01 0.01 0.01 0.01 0.01 0.01 0.02 0.02 0.02 0.02 0.02 0.01 0.02 0.03 0.04 0.04 0.03
0.01 0.03 0.03 0.03 0.04 0.05 0.04 0.06 0.11 0.09 0.07 0.04 0.03 0.02 0.03 0.04 0.04 0.03 0.03 0.02 0.03 0.04 0.03 0.03 0.05 0.08 0.11 0.06 0.05 0.05 0.04 0.03 0.03 0.02 0.01 0.01 0.02 0.02 0.02 0.02 0.02 0.02 0.01 0.01 0.01 0.02 0.02 0.03 0.03
0.02 0.03 0.02 0.04 0.04 0.03 0.04 0.07 0.09 0.06 0.05 0.04 0.02 0.02 0.01 0.03 0.04 0.04 0.04 0.03 0.03 0.04 0.07 0.07 0.05 0.04 0.05 0.05 0.04 0.03 0.03 0.03 0.03 0.03 0.02 0.02 0.02 0.03 0.03 0.03 0.02 0.01 0.01 0.01 0.01 0.01 0.01 0.02 0.02
0.01 0.02 0.03 0.03 0.04 0.05 0.07 0.08 0.10 0.08 0.06 0.04 0.01 0.01 0.02 0.04 0.06 0.03 0.02 0.02 0.03 0.03 0.08 0.12 0.07 0.05 0.05 0.03 0.03 0.03 0.02 0.03 0.03 0.03 0.03 0.03 0.03 0.03 0.03 0.02 0.02 0.02 0.03 0.02 0.02 0.01 0.01 0.01 0.01
0.01 0.02 0.03 0.02 0.05 0.08 0.08 0.12 0.14 0.13 0.08 0.04 0.01 0.02 0.06 0.11 0.05 0.02 0.02 0.02 0.03 0.04 0.10 0.19 0.14 0.11 0.08 0.05 0.03 0.02 0.02 0.02 0.02 0.03 0.04 0.04 0.04 0.04 0.02 0.03 0.02 0.03 0.03 0.03 0.03 0.02 0.02 0.01 0.01
0.02 0.02 0.02 0.02 0.04 0.06 0.06 0.13 0.15 0.10 0.06 0.04 0.03 0.05 0.09 0.11 0.04 0.02 0.03 0.05 0.04 0.05 0.11 0.13 0.12 0.10 0.18 0.09 0.05 0.04 0.03 0.02 0.01 0.02 0.03 0.03 0.03 0.03 0.02 0.03 0.06 0.06 0.06 0.06 0.07 0.05 0.04 0.04 0.03
0.02 0.02 0.02 0.02 0.03 0.02 0.04 0.09 0.08 0.05 0.04 0.06 0.04 0.06 0.07 0.05 0.03 0.02 0.02 0.04 0.05 0.05 0.06 0.05 0.07 0.12 0.18 0.08 0.06 0.07 0.03 0.02 0.02 0.01 0.02 0.03 0.03 0.03 0.04 0.05 0.07 0.07 0.07 0.09 0.10 0.08 0.06 0.06 0.05
MSLP
1009.58 1010.28 1010.99 1011.60 1012.00 1012.13 1012.00 1011.67 1011.23 1010.79 1010.45 1010.25 1010.22 1010.30 1010.42 1010.49 1010.41 1010.14 1009.67 1009.04 1008.33 1007.61 1006.97 1006.49 1006.18 1006.04 1006.01 1006.04 1006.05 1006.00 1005.84 1005.57 1005.20 1004.77 1004.30 1003.84 1003.39 1002.97 1002.58 1002.20 1001.81 1001.43 1001.04 1000.65 1000.30 999.99 999.77 999.64 999.62
1009.89 1010.66 1011.37 1011.91 1012.18 1012.16 1011.87 1011.40 1010.85 1010.33 1009.94 1009.71 1009.65 1009.69 1009.77 1009.78 1009.66 1009.36 1008.88 1008.27 1007.61 1006.96 1006.41 1006.01 1005.77 1005.68 1005.70 1005.75 1005.77 1005.71 1005.53 1005.22 1004.79 1004.28 1003.72 1003.16 1002.62 1002.13 1001.68 1001.26 1000.86 1000.46 1000.05 999.61 999.17 998.76 998.41 998.16 998.05
1010.31 1011.11 1011.79 1012.23 1012.36 1012.19 1011.77 1011.18 1010.54 1009.98 1009.55 1009.29 1009.18 1009.17 1009.17 1009.10 1008.91 1008.56 1008.06 1007.48 1006.86 1006.29 1005.83 1005.52 1005.36 1005.34 1005.39 1005.47 1005.49 1005.42 1005.22 1004.86 1004.37 1003.77 1003.12 1002.46 1001.84 1001.27 1000.77 1000.32 999.88 999.42 998.92 998.36 997.74 997.12 996.55 996.10 995.86
1010.77 1011.56 1012.17 1012.49 1012.50 1012.20 1011.67 1011.01 1010.35 1009.77 1009.33 1009.05 1008.90 1008.82 1008.73 1008.57 1008.29 1007.87 1007.35 1006.78 1006.21 1005.72 1005.34 1005.11 1005.03 1005.05 1005.14 1005.22 1005.25 1005.15 1004.91 1004.50 1003.95 1003.28 1002.55 1001.82 1001.12 1000.49 999.94 999.43 998.92 998.35 997.68 996.89 996.00 995.06 994.17 993.45 993.01
1011.19 1011.93 1012.43 1012.63 1012.52 1012.13 1011.55 1010.89 1010.24 1009.70 1009.30 1009.03 1008.85 1008.70 1008.52 1008.26 1007.89 1007.41 1006.86 1006.30 1005.78 1005.35 1005.04 1004.87 1004.83 1004.88 1004.96 1005.03 1005.03 1004.90 1004.62 1004.17 1003.56 1002.84 1002.06 1001.27 1000.53 999.86 999.25 998.66 998.04 997.30 996.39 995.28 994.01 992.66 991.36 990.30 989.63
1011.50 1012.13 1012.50 1012.57 1012.36 1011.93 1011.36 1010.75 1010.19 1009.74 1009.41 1009.18 1009.00 1008.80 1008.55 1008.20 1007.75 1007.22 1006.66 1006.11 1005.63 1005.25 1004.98 1004.84 1004.80 1004.83 1004.88 1004.90 1004.84 1004.67 1004.34 1003.85 1003.22 1002.47 1001.67 1000.87 1000.11 999.41 998.75 998.07 997.30 996.34 995.13 993.65 991.94 990.13 988.39 986.95 986.02
1011.64 1012.11 1012.33 1012.28 1011.99 1011.55 1011.04 1010.55 1010.13 1009.82 1009.60 1009.44 1009.28 1009.06 1008.75 1008.34 1007.84 1007.29 1006.73 1006.21 1005.76 1005.42 1005.17 1005.02 1004.95 1004.91 1004.89 1004.82 1004.69 1004.45 1004.08 1003.57 1002.93 1002.20 1001.42 1000.63 999.88 999.16 998.45 997.69 996.76 995.57 994.05 992.19 990.05 987.79 985.62 983.83 982.65
1011.61 1011.89 1011.93 1011.76 1011.42 1011.01 1010.59 1010.25 1010.00 1009.86 1009.78 1009.71 1009.59 1009.37 1009.04 1008.60 1008.09 1007.53 1007.00 1006.52 1006.11 1005.79 1005.54 1005.36 1005.21 1005.09 1004.95 1004.78 1004.56 1004.25 1003.85 1003.34 1002.72 1002.02 1001.28 1000.54 999.81 999.10 998.36 997.51 996.45 995.06 993.29 991.11 988.62 985.99 983.48 981.41 980.04
1011.45 1011.52 1011.39 1011.09 1010.72 1010.34 1010.04 1009.85 1009.78 1009.81 1009.87 1009.89 1009.82 1009.63 1009.30 1008.87 1008.37 1007.85 1007.36 1006.93 1006.57 1006.27 1006.01 1005.78 1005.54 1005.30 1005.05 1004.77 1004.45 1004.09 1003.66 1003.16 1002.58 1001.93 1001.25 1000.57 999.88 999.19 998.44 997.55 996.40 994.89 992.95 990.58 987.88 985.04 982.34 980.10 978.62
1011.24 1011.11 1010.79 1010.39 1009.98 1009.64 1009.44 1009.40 1009.49 1009.66 1009.84 1009.94 1009.92 1009.75 1009.45 1009.04 1008.58 1008.13 1007.71 1007.35 1007.04 1006.76 1006.48 1006.19 1005.87 1005.53 1005.16 1004.78 1004.38 1003.97 1003.53 1003.05 1002.51 1001.93 1001.31 1000.68 1000.04 999.38 998.65 997.75 996.58 995.05 993.09 990.69 987.97 985.12 982.40 980.15 978.67
1011.09 1010.75 1010.28 1009.77 1009.33 1009.02 1008.91 1008.97 1009.18 1009.45 1009.70 1009.85 1009.86 1009.72 1009.44 1009.07 1008.67 1008.29 1007.96 1007.67 1007.41 1007.16 1006.87 1006.54 1006.15 1005.71 1005.26 1004.80 1004.35 1003.92 1003.48 1003.02 1002.53 1002.00 1001.43 1000.85 1000.25 999.63 998.93 998.08 996.97 995.53 993.68 991.44 988.90 986.23 983.69 981.59 980.20
1011.06 1010.56 1009.95 1009.36 1008.89 1008.60 1008.53 1008.65 1008.92 1009.23 1009.51 1009.67 1009.68 1009.55 1009.29 1008.97 1008.63 1008.33 1008.08 1007.86 1007.66 1007.43 1007.14 1006.78 1006.35 1005.85 1005.35 1004.85 1004.38 1003.93 1003.51 1003.08 1002.62 1002.13 1001.60 1001.05 1000.48 999.89 999.24 998.47 997.50 996.24 994.65 992.71 990.51 988.20 986.00 984.18 982.98
1011.20 1010.57 1009.88 1009.23 1008.73 1008.45 1008.39 1008.53 1008.79 1009.09 1009.34 1009.46 1009.45 1009.31 1009.06 1008.78 1008.50 1008.27 1008.09 1007.93 1007.78 1007.57 1007.29 1006.91 1006.46 1005.95 1005.43 1004.92 1004.46 1004.03 1003.63 1003.22 1002.79 1002.31 1001.80 1001.25 1000.70 1000.13 999.54 998.88 998.08 997.08 995.81 994.29 992.55 990.72 988.97 987.53 986.59
1011.49 1010.80 1010.06 1009.40 1008.90 1008.61 1008.55 1008.66 1008.87 1009.10 1009.27 1009.33 1009.26 1009.09 1008.84 1008.59 1008.36 1008.18 1008.05 1007.93 1007.80 1007.60 1007.32 1006.95 1006.50 1006.01 1005.51 1005.03 1004.61 1004.21 1003.84 1003.45 1003.02 1002.54 1002.01 1001.46 1000.89 1000.34 999.81 999.26 998.65 997.92 997.02 995.94 994.71 993.40 992.16 991.13 990.48
1011.87 1011.17 1010.45 1009.81 1009.34 1009.07 1008.98 1009.04 1009.16 1009.28 1009.34 1009.30 1009.16 1008.95 1008.70 1008.46 1008.27 1008.12 1008.01 1007.91 1007.78 1007.58 1007.30 1006.93 1006.50 1006.04 1005.59 1005.18 1004.80 1004.46 1004.12 1003.75 1003.32 1002.82 1002.26 1001.67 1001.09 1000.54 1000.05 999.60 999.16 998.68 998.12 997.45 996.68 995.87 995.10 994.48 994.11
1012.23 1011.58 1010.94 1010.39 1009.98 1009.74 1009.63 1009.62 1009.64 1009.63 1009.55 1009.40 1009.18 1008.93 1008.67 1008.45 1008.27 1008.14 1008.04 1007.92 1007.77 1007.55 1007.25 1006.89 1006.48 1006.07 1005.69 1005.35 1005.04 1004.75 1004.45 1004.09 1003.65 1003.13 1002.53 1001.92 1001.31 1000.76 1000.30 999.92 999.61 999.32 999.02 998.69 998.30 997.89 997.51 997.23 997.11
1012.47 1011.95 1011.45 1011.04 1010.74 1010.55 1010.43 1010.34 1010.23 1010.08 1009.87 1009.60 1009.30 1009.00 1008.74 1008.53 1008.37 1008.25 1008.13 1007.99 1007.80 1007.53 1007.21 1006.84 1006.46 1006.11 1005.80 1005.54 1005.31 1005.08 1004.81 1004.47 1004.02 1003.48 1002.86 1002.22 1001.60 1001.05 1000.60 1000.27 1000.04 999.87 999.74 999.62 999.48 999.35 999.25 999.22 999.28
1012.55 1012.21 1011.92 1011.69 1011.53 1011.40 1011.28 1011.11 1010.88 1010.57 1010.20 1009.81 1009.44 1009.11 1008.85 1008.66 1008.53 1008.41 1008.29 1008.11 1007.86 1007.55 1007.19 1006.82 1006.46 1006.16 1005.92 1005.74 1005.59 1005.42 1005.20 1004.87 1004.43 1003.88 1003.26 1002.60 1001.98 1001.44 1001.01 1000.70 1000.50 1000.39 1000.33 1000.30 1000.29 1000.30 1000.35 1000.46 1000.65
1012.48 1012.36 1012.31 1012.30 1012.30 1012.25 1012.12 1011.86 1011.48 1011.01 1010.49 1009.98 1009.53 1009.18 1008.93 1008.78 1008.68 1008.59 1008.45 1008.25 1007.96 1007.60 1007.21 1006.82 1006.49 1006.23 1006.07 1005.97 1005.89 1005.78 1005.60 1005.31 1004.88 1004.34 1003.73 1003.09 1002.49 1001.96 1001.55 1001.25 1001.06 1000.95 1000.89 1000.86 1000.86 1000.89 1000.98 1001.14 1001.39
1012.30 1012.45 1012.66 1012.89 1013.05 1013.07 1012.91 1012.55 1012.01 1011.35 1010.67 1010.03 1009.51 1009.14 1008.92 1008.81 1008.77 1008.71 1008.59 1008.38 1008.06 1007.66 1007.24 1006.85 1006.54 1006.33 1006.23 1006.21 1006.20 1006.16 1006.03 1005.76 1005.37 1004.85 1004.27 1003.67 1003.11 1002.62 1002.24 1001.96 1001.75 1001.61 1001.49 1001.40 1001.33 1001.31 1001.36 1001.49 1001.74
1012.14 1012.56 1013.04 1013.49 1013.79 1013.86 1013.64 1013.15 1012.43 1011.57 1010.71 1009.93 1009.34 1008.95 1008.77 1008.73 1008.75 1008.76 1008.67 1008.47 1008.14 1007.73 1007.30 1006.91 1006.62 1006.47 1006.43 1006.47 1006.53 1006.55 1006.46 1006.24 1005.88 1005.41 1004.87 1004.32 1003.81 1003.39 1003.04 1002.78 1002.57 1002.39 1002.21 1002.03 1001.86 1001.73 1001.69 1001.75 1001.95
1012.11 1012.78 1013.51 1014.14 1014.55 1014.62 1014.33 1013.67 1012.75 1011.68 1010.62 1009.71 1009.04 1008.64 1008.49 1008.52 1008.63 1008.71 1008.68 1008.51 1008.20 1007.80 1007.37 1006.99 1006.74 1006.62 1006.64 1006.74 1006.86 1006.94 1006.90 1006.73 1006.41 1005.98 1005.49 1005.00 1004.56 1004.19 1003.90 1003.67 1003.47 1003.26 1003.02 1002.77 1002.50 1002.27 1002.12 1002.10 1002.23
1012.28 1013.18 1014.10 1014.87 1015.33 1015.38 1014.96 1014.13 1012.99 1011.70 1010.46 1009.41 1008.66 1008.25 1008.14 1008.24 1008.43 1008.59 1008.63 1008.51 1008.23 1007.85 1007.44 1007.09 1006.86 1006.79 1006.85 1007.01 1007.19 1007.32 1007.33 1007.20 1006.92 1006.54 1006.10 1005.67 1005.28 1004.97 1004.73 1004.54 1004.36 1004.15 1003.89 1003.58 1003.25 1002.94 1002.70 1002.60 1002.66
1012.68 1013.75 1014.81 1015.66 1016.13 1016.10 1015.55 1014.53 1013.18 1011.69 1010.28 1009.11 1008.29 1007.86 1007.78 1007.94 1008.21 1008.44 1008.55 1008.48 1008.24 1007.88 1007.50 1007.17 1006.98 1006.94 1007.05 1007.26 1007.49 1007.66 1007.72 1007.63 1007.39 1007.05 1006.66 1006.27 1005.93 1005.67 1005.48 1005.32 1005.17 1004.98 1004.72 1004.40 1004.05 1003.70 1003.42 1003.25 1003.25
1013.24 1014.42 1015.55 1016.42 1016.85 1016.73 1016.04 1014.85 1013.33 1011.67 1010.12 1008.85 1007.99 1007.55 1007.49 1007.69 1008.01 1008.31 1008.47 1008.44 1008.23 1007.90 1007.53 1007.23 1007.06 1007.06 1007.21 1007.46 1007.74 1007.96 1008.06 1008.01 1007.81 1007.50 1007.14 1006.79 1006.48 1006.25 1006.09 1005.97 1005.85 1005.69 1005.46 1005.17 1004.83 1004.49 1004.19 1004.00 1003.95
1013.85 1015.07 1016.22 1017.06 1017.43 1017.21 1016.39 1015.08 1013.42 1011.66 1010.03 1008.71 1007.81 1007.37 1007.32 1007.55 1007.90 1008.22 1008.40 1008.39 1008.20 1007.88 1007.54 1007.25 1007.11 1007.13 1007.32 1007.60 1007.92 1008.18 1008.32 1008.31 1008.15 1007.88 1007.55 1007.22 1006.94 1006.73 1006.58 1006.49 1006.39 1006.27 1006.08 1005.83 1005.54 1005.23 1004.96 1004.77 1004.69
1014.36 1015.58 1016.69 1017.48 1017.76 1017.46 1016.56 1015.17 1013.46 1011.66 1010.01 1008.69 1007.79 1007.36 1007.31 1007.54 1007.89 1008.20 1008.37 1008.35 1008.15 1007.84 1007.50 1007.23 1007.10 1007.15 1007.36 1007.68 1008.02 1008.33 1008.51 1008.55 1008.43 1008.20 1007.90 1007.60 1007.33 1007.12 1006.98 1006.89 1006.82 1006.72 1006.58 1006.38 1006.15 1005.90 1005.68 1005.51 1005.42
1014.67 1015.84 1016.88 1017.58 1017.79 1017.43 1016.50 1015.10 1013.41 1011.66 1010.06 1008.79 1007.93 1007.51 1007.46 1007.67 1007.98 1008.25 1008.37 1008.32 1008.10 1007.78 1007.44 1007.17 1007.06 1007.13 1007.36 1007.70 1008.08 1008.42 1008.65 1008.73 1008.66 1008.47 1008.21 1007.93 1007.68 1007.48 1007.34 1007.25 1007.18 1007.10 1006.99 1006.85 1006.67 1006.48 1006.31 1006.18 1006.10
1014.68 1015.78 1016.73 1017.36 1017.51 1017.12 1016.21 1014.88 1013.29 1011.65 1010.17 1008.99 1008.21 1007.81 1007.76 1007.92 1008.16 1008.36 1008.42 1008.31 1008.06 1007.72 1007.38 1007.12 1007.02 1007.11 1007.35 1007.71 1008.11 1008.48 1008.74 1008.87 1008.85 1008.72 1008.50 1008.25 1008.02 1007.83 1007.70 1007.60 1007.53 1007.45 1007.36 1007.25 1007.11 1006.97 1006.85 1006.76 1006.69
1014.44 1015.45 1016.32 1016.87 1016.98 1016.60 1015.75 1014.54 1013.11 1011.64 1010.33 1009.28 1008.58 1008.23 1008.16 1008.26 1008.42 1008.53 1008.51 1008.34 1008.05 1007.69 1007.35 1007.11 1007.03 1007.13 1007.39 1007.75 1008.16 1008.54 1008.83 1008.99 1009.02 1008.93 1008.76 1008.56 1008.36 1008.19 1008.06 1007.96 1007.88 1007.80 1007.71 1007.61 1007.50 1007.39 1007.30 1007.24 1007.20
Thickness
5822 5820 5815 5804 5786 5771 5770 5786 5798 5800 5800 5807 5810 5804 5792 5784 5776 5767 5789 5798 5797 5795 5795 5795 5795 5795 5794 5794 5793 5793 5792 5790 5789 5788 5787 5785 5784 5783 5782 5781 5780 5779 5777 5776 5775 5774 5772 5770 5769
5824 5820 5810 5796 5774 5758 5770 5792 5797 5802 5807 5813 5810 5804 5794 5787 5792 5789 5792 5796 5797 5796 5796 5796 5797 5796 5795 5794 5793 5792 5792 5790 5789 5788 5786 5785 5784 5783 5782 5781 5780 5778 5777 5775 5774 5773 5772 5770 5768
5826 5821 5802 5786 5772 5766 5776 5796 5803 5810 5816 5814 5805 5802 5795 5788 5793 5793 5796 5798 5797 5796 5796 5796 5797 5797 5795 5794 5793 5792 5791 5790 5789 5787 5786 5785 5784 5783 5781 5780 5779 5778 5777 5775 5774 5773 5771 5770 5769
5823 5810 5798 5781 5774 5789 5797 5804 5812 5810 5812 5813 5805 5793 5795 5801 5800 5799 5800 5799 5797 5796 5796 5796 5796 5795 5795 5794 5793 5792 5791 5790 5789 5787 5786 5785 5784 5783 5782 5781 5779 5778 5776 5775 5774 5773 5772 5771 5769
5822 5803 5785 5775 5782 5800 5811 5818 5819 5809 5805 5805 5802 5787 5786 5800 5806 5803 5801 5799 5797 5796 5796 5796 5796 5795 5794 5793 5792 5791 5791 5790 5788 5787 5786 5785 5784 5783 5782 5781 5779 5778 5777 5775 5775 5773 5772 5771 5770
5810 5798 5777 5771 5787 5804 5815 5822 5819 5809 5804 5803 5799 5788 5785 5799 5801 5801 5801 5799 5799 5797 5797 5796 5796 5795 5794 5793 5792 5791 5791 5789 5788 5787 5786 5785 5784 5783 5783 5782 5780 5779 5777 5776 5775 5774 5772 5771 5770
5806 5792 5782 5785 5792 5800 5814 5825 5817 5809 5804 5805 5805 5787 5786 5794 5801 5802 5801 5800 5798 5798 5797 5796 5795 5794 5794 5793 5792 5791 5790 5789 5788 5787 5786 5785 5784 5783 5783 5782 5781 5779 5778 5776 5775 5774 5773 5772 5772
5819 5800 5789 5793 5795 5800 5820 5826 5824 5817 5810 5816 5812 5790 5785 5796 5804 5803 5800 5798 5797 5796 5796 5795 5795 5794 5793 5792 5791 5791 5789 5789 5788 5787 5786 5785 5784 5784 5783 5782 5781 5780 5778 5777 5776 5775 5774 5774 5773
5827 5796 5786 5799 5802 5808 5823 5821 5823 5828 5819 5816 5814 5807 5806 5807 5805 5799 5795 5793 5792 5793 5794 5795 5794 5794 5793 5792 5791 5790 5789 5788 5787 5787 5786 5785 5784 5784 5783 5782 5782 5780 5779 5778 5777 5776 5776 5775 5775
5818 5794 5804 5824 5826 5822 5825 5824 5822 5816 5808 5805 5806 5809 5811 5807 5802 5796 5792 5790 5790 5791 5793 5795 5794 5794 5793 5793 5791 5790 5788 5788 5787 5787 5786 5785 5784 5783 5783 5783 5782 5781 5780 5779 5778 5778 5777 5776 5775
5821 5811 5825 5835 5839 5835 5827 5825 5828 5813 5800 5804 5803 5805 5807 5804 5800 5796 5795 5794 5794 5795 5795 5795 5795 5795 5794 5793 5792 5790 5788 5788 5787 5787 5786 5785 5784 5783 5783 5783 5782 5781 5780 5779 5779 5778 5777 5777 5776
5827 5832 5839 5839 5844 5839 5830 5827 5822 5818 5814 5821 5819 5815 5809 5804 5800 5799 5797 5797 5797 5796 5796 5797 5797 5796 5795 5794 5793 5791 5790 5789 5788 5788 5787 5786 5784 5783 5783 5782 5782 5781 5781 5779 5779 5778 5778 5777 5777
5829 5833 5844 5846 5845 5841 5836 5828 5823 5819 5825 5826 5822 5816 5810 5806 5804 5803 5804 5802 5800 5798 5797 5797 5798 5797 5796 5795 5793 5792 5791 5790 5789 5788 5787 5787 5785 5784 5783 5783 5782 5782 5781 5780 5779 5778 5778 5777 5777
5834 5836 5840 5844 5843 5841 5831 5826 5822 5818 5826 5822 5818 5813 5812 5809 5807 5805 5803 5801 5801 5800 5799 5800 5799 5798 5797 5795 5794 5793 5792 5791 5790 5789 5789 5788 5787 5786 5785 5784 5783 5783 5782 5781 5780 5779 5779 5778 5777
5838 5829 5830 5837 5839 5837 5831 5813 5817 5825 5825 5819 5816 5814 5812 5811 5810 5807 5806 5805 5804 5802 5802 5801 5800 5799 5797 5796 5795 5794 5792 5791 5791 5790 5790 5789 5789 5788 5786 5784 5783 5783 5783 5782 5781 5780 5779 5778 5777
5828 5815 5805 5827 5836 5837 5821 5796 5818 5828 5823 5815 5815 5815 5812 5811 5812 5812 5811 5809 5808 5805 5803 5802 5803 5800 5798 5796 5795 5794 5793 5792 5792 5791 5791 5790 5789 5788 5787 5785 5784 5784 5783 5782 5780 5779 5777 5776 5775
5805 5794 5798 5817 5835 5834 5820 5803 5819 5827 5823 5816 5815 5814 5813 5811 5812 5813 5814 5813 5811 5808 5805 5803 5802 5800 5798 5797 5796 5795 5795 5794 5793 5791 5791 5791 5790 5789 5787 5786 5785 5784 5782 5781 5780 5777 5776 5773 5773
5792 5795 5800 5807 5826 5827 5814 5811 5820 5826 5824 5818 5817 5815 5814 5812 5813 5816 5816 5815 5813 5811 5808 5805 5802 5800 5799 5797 5795 5794 5794 5794 5793 5792 5791 5791 5790 5789 5787 5786 5784 5783 5781 5779 5778 5776 5775 5774 5772
5812 5805 5801 5813 5831 5822 5812 5810 5815 5823 5821 5817 5815 5815 5814 5815 5818 5818 5818 5817 5814 5810 5807 5805 5801 5800 5799 5796 5793 5791 5789 5790 5791 5792 5791 5790 5789 5788 5786 5785 5783 5782 5779 5778 5777 5775 5773 5771 5771
5815 5804 5803 5816 5832 5822 5810 5809 5818 5822 5821 5822 5820 5818 5817 5815 5815 5816 5816 5816 5813 5810 5808 5805 5802 5801 5800 5799 5796 5793 5791 5790 5790 5790 5790 5789 5788 5787 5786 5784 5782 5781 5778 5776 5775 5773 5770 5769 5769
5814 5807 5808 5810 5821 5820 5807 5796 5807 5818 5823 5825 5825 5823 5820 5818 5815 5816 5816 5815 5813 5810 5808 5807 5805 5803 5801 5800 5796 5793 5790 5788 5786 5786 5787 5788 5787 5786 5785 5783 5782 5780 5777 5775 5774 5772 5769 5765 5765
5807 5827 5826 5816 5800 5786 5796 5768 5793 5807 5812 5816 5818 5818 5817 5818 5817 5816 5815 5813 5813 5813 5812 5809 5806 5804 5801 5799 5795 5790 5784 5781 5782 5784 5784 5785 5785 5785 5784 5783 5781 5778 5776 5774 5772 5772 5769 5766 5761
5822 5836 5829 5819 5800 5785 5787 5772 5781 5801 5798 5807 5815 5818 5819 5820 5819 5817 5817 5816 5816 5815 5813 5810 5807 5803 5801 5798 5794 5790 5786 5784 5784 5783 5782 5782 5783 5783 5782 5781 5779 5777 5775 5773 5771 5769 5768 5765 5761
5838 5826 5815 5803 5786 5764 5777 5771 5771 5789 5800 5809 5816 5820 5821 5822 5822 5820 5819 5818 5816 5815 5813 5810 5806 5802 5800 5797 5794 5790 5786 5784 5782 5780 5779 5779 5779 5780 5780 5779 5777 5775 5773 5771 5769 5767 5765 5763 5761
5826 5794 5768 5761 5751 5754 5778 5773 5776 5805 5818 5820 5820 5821 5824 5824 5821 5818 5816 5815 5814 5813 5811 5809 5805 5801 5799 5797 5794 5792 5788 5785 5782 5780 5778 5777 5775 5775 5776 5776 5774 5773 5771 5769 5767 5765 5763 5761 5758
5816 5798 5766 5750 5744 5753 5772 5767 5789 5818 5826 5828 5828 5827 5826 5823 5822 5820 5819 5817 5815 5814 5811 5808 5803 5800 5798 5796 5794 5792 5789 5786 5783 5781 5779 5777 5775 5775 5775 5774 5772 5770 5769 5767 5764 5762 5760 5758 5756
5813 5799 5798 5771 5758 5748 5757 5775 5795 5815 5819 5820 5822 5823 5821 5822 5823 5821 5820 5818 5816 5814 5811 5808 5804 5800 5798 5796 5794 5791 5788 5785 5783 5781 5779 5777 5775 5774 5773 5771 5769 5768 5765 5763 5761 5758 5756 5755 5753
5824 5810 5785 5766 5746 5738 5749 5762 5772 5792 5802 5809 5814 5816 5818 5821 5821 5821 5819 5818 5816 5814 5811 5808 5804 5800 5798 5796 5793 5791 5788 5786 5783 5780 5777 5776 5774 5772 5770 5768 5766 5764 5762 5760 5757 5755 5753 5750 5749
5809 5801 5785 5768 5763 5743 5735 5754 5799 5799 5804 5807 5812 5818 5819 5819 5820 5819 5819 5818 5816 5813 5809 5805 5801 5798 5796 5794 5792 5789 5787 5785 5782 5778 5776 5774 5772 5770 5767 5765 5763 5760 5758 5756 5753 5750 5749 5746 5744
5814 5801 5786 5766 5758 5756 5747 5760 5813 5811 5811 5812 5813 5817 5819 5819 5819 5818 5817 5814 5812 5809 5806 5803 5800 5796 5794 5793 5790 5787 5785 5782 5779 5776 5774 5772 5769 5767 5764 5762 5759 5757 5754 5751 5748 5746 5744 5742 5739